IRS-P6 (RESOURCESAT-1)

Last updated on Thu Jul 03 2025 00:02:29 GMT+0000 (Coordinated Universal Time)

1 28051U 03046A 25183.61082521 .00000088 00000+0 43868-4 0 9991 2 28051 98.2397 231.3360 0063211 311.4413 162.0941 14.35986278130352
UTC large
Height (km)
Speed (km/s)
/
Latitude / Longitude
Inclination (degrees)
Orbital Period (minutes)
Azimuth
Elevation
Range (km)
Doppler Factor

Next 0 passes for location: London (51.5072 / 0.1276)

Sorry there are no passes over London.